When you browse on this site, cookies collect data to enhance your experience and personalize the content and advertising you see.
Visit our Privacy Policy to learn more. By continuing to use the site, you agree to this use of cookies and data.
  • In Austria
  • List of Countries
  • For 7 days
  • Water Temperature
  • Satellite Maps
  • Weather Map
  • News
  • Weather Widgets
  • user-avatar
    Login

    Hourly Weather San Miguel de Tucumán

    Today, 21 July, Sunday

    Time Temperature Precipitation Wind Pressure Humidity
    00:00 +19°C° 0 mm 1 mps 711 mmHg 56%
    01:00 +18°C° 0 mm 1 mps 710 mmHg 52%
    02:00 +18°C° 0 mm 1 mps 710 mmHg 51%
    03:00 +18°C° 0 mm 1 mps 709 mmHg 48%
    04:00 +18°C° 0 mm 1 mps 708 mmHg 45%
    05:00 +16°C° 0 mm 2 mps 708 mmHg 42%
    06:00 +17°C° 0 mm 2 mps 708 mmHg 39%
    07:00 +19°C° 0 mm 1 mps 709 mmHg 37%
    08:00 +19°C° 0 mm 1 mps 709 mmHg 34%
    09:00 +23°C° 0 mm 1 mps 710 mmHg 30%
    10:00 +26°C° 0 mm 1 mps 710 mmHg 25%
    11:00 +29°C° 0 mm 1 mps 711 mmHg 21%
    12:00 +30°C° 0 mm 1 mps 710 mmHg 20%
    13:00 +30°C° 0 mm 2 mps 710 mmHg 19%
    14:00 +31°C° 0 mm 2 mps 709 mmHg 18%
    15:00 +30°C° 0 mm 2 mps 709 mmHg 21%
    16:00 +29°C° 0 mm 2 mps 710 mmHg 24%
    17:00 +27°C° 0 mm 2 mps 710 mmHg 27%
    18:00 +25°C° 0 mm 2 mps 711 mmHg 28%
    19:00 +24°C° 0 mm 2 mps 711 mmHg 29%
    20:00 +21°C° 0 mm 2 mps 712 mmHg 30%
    21:00 +21°C° 0 mm 2 mps 713 mmHg 32%
    22:00 +21°C° 0 mm 2 mps 713 mmHg 34%
    23:00 +22°C° 0 mm 1 mps 714 mmHg 36%

    Tomorrow, 22 July, Monday

    Time Temperature Precipitation Wind Pressure Humidity
    00:00 +19°C° 0 mm 2 mps 715 mmHg 48%
    01:00 +18°C° 0 mm 2 mps 715 mmHg 60%
    02:00 +16°C° 0 mm 2 mps 716 mmHg 71%
    03:00 +15°C° 0 mm 2 mps 717 mmHg 69%
    04:00 +15°C° 0 mm 2 mps 717 mmHg 66%
    05:00 +14°C° 0 mm 2 mps 718 mmHg 64%
    06:00 +14°C° 0 mm 2 mps 719 mmHg 62%
    07:00 +14°C° 0 mm 2 mps 720 mmHg 61%
    08:00 +13°C° 0 mm 2 mps 721 mmHg 60%
    09:00 +14°C° 0 mm 2 mps 721 mmHg 54%
    10:00 +14°C° 0 mm 2 mps 721 mmHg 47%
    11:00 +14°C° 0 mm 3 mps 721 mmHg 41%
    12:00 +14°C° 0 mm 3 mps 721 mmHg 37%
    13:00 +16°C° 0 mm 3 mps 720 mmHg 34%
    14:00 +17°C° 0 mm 3 mps 720 mmHg 30%
    15:00 +16°C° 0 mm 3 mps 720 mmHg 29%
    16:00 +16°C° 0 mm 3 mps 720 mmHg 28%
    17:00 +16°C° 0 mm 2 mps 720 mmHg 27%
    18:00 +14°C° 0 mm 2 mps 721 mmHg 29%
    19:00 +13°C° 0 mm 1 mps 721 mmHg 31%
    20:00 +12°C° 0 mm 1 mps 722 mmHg 33%
    21:00 +11°C° 0 mm 1 mps 722 mmHg 33%
    22:00 +11°C° 0 mm 1 mps 723 mmHg 33%
    23:00 +11°C° 0 mm 1 mps 723 mmHg 33%

    Day after tomorrow, 23 July, Tuesday

    Time Temperature Precipitation Wind Pressure Humidity
    00:00 +11°C° 0 mm 1 mps 723 mmHg 33%
    01:00 +11°C° 0 mm 1 mps 723 mmHg 34%
    02:00 +10°C° 0 mm 1 mps 723 mmHg 34%
    03:00 +10°C° 0 mm 1 mps 723 mmHg 35%
    04:00 +10°C° 0 mm 1 mps 723 mmHg 36%
    05:00 +9°C° 0 mm 1 mps 723 mmHg 36%
    06:00 +8°C° 0 mm 2 mps 723 mmHg 36%
    07:00 +8°C° 0 mm 2 mps 724 mmHg 36%
    08:00 +9°C° 0 mm 2 mps 724 mmHg 35%
    09:00 +10°C° 0 mm 2 mps 724 mmHg 34%
    10:00 +12°C° 0 mm 2 mps 725 mmHg 32%
    11:00 +12°C° 0 mm 3 mps 725 mmHg 30%
    12:00 +13°C° 0 mm 3 mps 724 mmHg 28%
    13:00 +14°C° 0 mm 3 mps 724 mmHg 27%
    14:00 +14°C° 0 mm 3 mps 723 mmHg 25%
    15:00 +14°C° 0 mm 3 mps 723 mmHg 27%
    16:00 +13°C° 0 mm 3 mps 723 mmHg 28%
    17:00 +14°C° 0 mm 2 mps 723 mmHg 30%
    18:00 +12°C° 0 mm 2 mps 724 mmHg 34%
    19:00 +10°C° 0 mm 1 mps 725 mmHg 38%
    20:00 +8°C° 0 mm 1 mps 726 mmHg 42%
    21:00 +8°C° 0 mm 1 mps 726 mmHg 43%
    22:00 +8°C° 0 mm 1 mps 727 mmHg 43%
    23:00 +8°C° 0 mm 1 mps 727 mmHg 44%

    24 July, Wednesday

    Time Temperature Precipitation Wind Pressure Humidity
    00:00 +7°C° 0 mm 1 mps 727 mmHg 45%
    01:00 +7°C° 0 mm 1 mps 728 mmHg 46%
    02:00 +6°C° 0 mm 0 mps 728 mmHg 47%
    03:00 +6°C° 0 mm 1 mps 728 mmHg 48%
    04:00 +6°C° 0 mm 1 mps 728 mmHg 49%
    05:00 +6°C° 0 mm 1 mps 728 mmHg 50%
    06:00 +7°C° 0 mm 1 mps 729 mmHg 49%
    07:00 +7°C° 0 mm 1 mps 729 mmHg 48%
    08:00 +8°C° 0 mm 1 mps 730 mmHg 47%
    09:00 +10°C° 0 mm 1 mps 730 mmHg 40%
    10:00 +12°C° 0 mm 2 mps 731 mmHg 34%
    11:00 +15°C° 0 mm 2 mps 731 mmHg 28%
    12:00 +16°C° 0 mm 2 mps 730 mmHg 26%
    13:00 +16°C° 0 mm 3 mps 730 mmHg 25%
    14:00 +17°C° 0 mm 3 mps 729 mmHg 23%
    15:00 +16°C° 0 mm 3 mps 729 mmHg 24%
    16:00 +16°C° 0 mm 2 mps 729 mmHg 24%
    17:00 +15°C° 0 mm 2 mps 729 mmHg 25%
    18:00 +13°C° 0 mm 2 mps 729 mmHg 29%
    19:00 +12°C° 0 mm 1 mps 729 mmHg 34%
    20:00 +10°C° 0 mm 1 mps 730 mmHg 38%
    21:00 +9°C° 0 mm 1 mps 730 mmHg 39%
    22:00 +9°C° 0 mm 1 mps 730 mmHg 41%
    23:00 +8°C° 0 mm 1 mps 730 mmHg 42%

    25 July, Thursday

    Time Temperature Precipitation Wind Pressure Humidity
    00:00 +8°C° 0 mm 1 mps 729 mmHg 43%
    01:00 +7°C° 0 mm 1 mps 729 mmHg 44%
    02:00 +7°C° 0 mm 1 mps 728 mmHg 45%
    03:00 +7°C° 0 mm 1 mps 728 mmHg 46%
    04:00 +6°C° 0 mm 1 mps 727 mmHg 46%
    05:00 +6°C° 0 mm 1 mps 727 mmHg 47%
    06:00 +7°C° 0 mm 1 mps 727 mmHg 46%
    07:00 +7°C° 0 mm 1 mps 728 mmHg 45%
    08:00 +8°C° 0 mm 1 mps 728 mmHg 44%
    09:00 +10°C° 0 mm 1 mps 728 mmHg 39%
    10:00 +13°C° 0 mm 1 mps 728 mmHg 33%
    11:00 +15°C° 0 mm 1 mps 728 mmHg 28%
    12:00 +16°C° 0 mm 1 mps 727 mmHg 27%
    13:00 +17°C° 0 mm 2 mps 726 mmHg 26%
    14:00 +18°C° 0 mm 2 mps 726 mmHg 26%
    15:00 +17°C° 0 mm 2 mps 725 mmHg 27%
    16:00 +16°C° 0 mm 2 mps 725 mmHg 29%
    17:00 +16°C° 0 mm 2 mps 725 mmHg 30%
    18:00 +14°C° 0 mm 2 mps 725 mmHg 34%
    19:00 +12°C° 0 mm 1 mps 725 mmHg 39%
    20:00 +10°C° 0 mm 1 mps 726 mmHg 43%
    21:00 +9°C° 0 mm 1 mps 726 mmHg 44%
    22:00 +9°C° 0 mm 1 mps 726 mmHg 45%
    23:00 +8°C° 0 mm 1 mps 726 mmHg 46%

    26 July, Friday

    Time Temperature Precipitation Wind Pressure Humidity
    00:00 +8°C° 0 mm 1 mps 726 mmHg 47%
    01:00 +8°C° 0 mm 1 mps 726 mmHg 49%
    02:00 +7°C° 0 mm 1 mps 725 mmHg 50%
    03:00 +7°C° 0 mm 1 mps 725 mmHg 51%
    04:00 +7°C° 0 mm 1 mps 725 mmHg 51%
    05:00 +7°C° 0 mm 1 mps 725 mmHg 52%
    06:00 +7°C° 0 mm 1 mps 725 mmHg 50%
    07:00 +8°C° 0 mm 1 mps 726 mmHg 48%
    08:00 +8°C° 0 mm 1 mps 726 mmHg 46%
    09:00 +11°C° 0 mm 1 mps 726 mmHg 40%
    10:00 +14°C° 0 mm 1 mps 726 mmHg 34%
    11:00 +18°C° 0 mm 1 mps 726 mmHg 28%
    12:00 +18°C° 0 mm 2 mps 725 mmHg 26%
    13:00 +19°C° 0 mm 2 mps 725 mmHg 24%
    14:00 +20°C° 0 mm 2 mps 724 mmHg 23%
    15:00 +20°C° 0 mm 2 mps 724 mmHg 25%
    16:00 +19°C° 0 mm 2 mps 723 mmHg 26%
    17:00 +18°C° 0 mm 2 mps 723 mmHg 28%
    18:00 +16°C° 0 mm 2 mps 723 mmHg 33%
    19:00 +14°C° 0 mm 1 mps 723 mmHg 37%
    20:00 +12°C° 0 mm 1 mps 724 mmHg 42%
    21:00 +11°C° 0 mm 1 mps 724 mmHg 43%
    22:00 +11°C° 0 mm 1 mps 724 mmHg 45%
    23:00 +10°C° 0 mm 1 mps 724 mmHg 47%
    Show more